Home   Weather   Wunstorf   Past weeks

Flag for Germany Past Weather in Wunstorf, Lower Saxony, Germany — Yesterday and Last 2 Weeks

Now
50 °F

Broken clouds.


Feels Like: 46 °F
Forecast: 36 / 47 °F
Wind: 10 mph from West

Location: Wunstorf Airport

Current Time: Apr 24, 2017 at 9:35:41 pm

Latest Report: Apr 24, 2017 at 8:20 pm


Visibility: N/A

Pressure: 29.77 "Hg

Humidity: 71%

Dew Point: 41 °F

Location of WunstorfLocation

Past Weather in Wunstorf — Graph

°F

Wunstorf Temperature Yesterday

Maximum temperature yesterday: 48 °F (at 5:20 pm)
Minimum temperature yesterday: 39 °F (at 1:20 am)
Average temperature yesterday: 43 °F

High & Low Weather Summary for the Past Weeks

 TemperatureHumidityPressure
High66 °F (Apr 9, 7:20 pm)94% (Apr 12, 6:29 pm)30.63 "Hg (Apr 12, 6:29 pm)
Low27 °F (Apr 20, 5:20 am)34% (Apr 20, 2:20 pm)29.80 "Hg (Apr 13, 4:20 am)
Average46 °F70%30.12 "Hg
* Reported Apr 9 7:20 pm — Apr 24 7:20 pm, Wunstorf, Weather by CustomWeather, © 2017

Note: Actual official high and low records may vary slightly from our data, if they occured in-between our weather recording intervals... More about our weather records

Advertising

Wunstorf Weather History for the Previous 24 Hours

Scroll right to see more
 ConditionsComfort  
Time TempWeatherWind HumidityBarometerVisibility
7:20 pm
Mon, Apr 24
50 °FLight rain. Broken clouds.13 mph76%29.80 "HgN/A
6:20 pm52 °FBroken clouds.10 mph67%29.80 "HgN/A
5:20 pm52 °FPartly sunny.16 mph67%29.83 "HgN/A
4:20 pm55 °FPartly sunny.10 mph51%29.83 "HgN/A
3:20 pm55 °FPartly sunny.17 mph51%29.86 "HgN/A
2:20 pm55 °FBroken clouds.23 mph47%29.86 "HgN/A
1:20 pm55 °FScattered clouds.21 mph47%29.89 "HgN/A
12:20 pm55 °FPartly sunny.21 mph47%29.92 "HgN/A
11:20 am52 °FPartly sunny.20 mph54%29.95 "HgN/A
10:20 am50 °FBroken clouds.18 mph54%29.95 "HgN/A
9:20 am46 °FPartly sunny.17 mph62%29.98 "HgN/A
8:20 am41 °FBroken clouds.9 mph76%30.01 "HgN/A
7:20 am37 °FBroken clouds.9 mph81%30.04 "HgN/A
6:20 am36 °FScattered clouds.8 mph87%30.04 "HgN/A
5:20 am36 °FChilly.9 mph81%30.07 "HgN/A
4:20 am36 °FChilly.10 mph87%30.09 "HgN/A
3:20 am36 °FChilly.9 mph87%30.12 "HgN/A
2:20 am34 °FChilly.9 mph87%30.15 "HgN/A
1:20 am37 °FChilly.6 mph81%30.15 "HgN/A
12:20 am37 °FChilly.6 mph81%30.18 "HgN/A
11:20 pm
Sun, Apr 23
39 °FChilly.7 mph75%30.18 "HgN/A
10:20 pm41 °FQuite cool.7 mph70%30.21 "HgN/A
9:20 pm43 °FQuite cool.9 mph66%30.18 "HgN/A
Weather by CustomWeather, © 2017

See weather overviewHow to use our weather pages